Regional Weather Roundup
Issued by NWS Upton, NY

Current Version | Previous Version | Graphics & Text | Print | Product List | Glossary Off
Versions: 1 2 3 4 5 6 7 8 9 10 11 12 13 14 15 16 17 18 19 20 21 22 23 24 25 26 27 28 29 30 31 32 33 34 35 36 37 38 39 40 41 42 43 44 45 46 47 48 49 50

000
ASUS41 KOKX 271809
RWROKX

REGIONAL WEATHER ROUNDUP
NATIONAL WEATHER SERVICE NEW YORK NY
200 PM EDT SAT MAY 27 2017

NOTE: "FAIR" INDICATES FEW OR NO CLOUDS BELOW 12,000 FEET WITH NO
SIGNIFICANT WEATHER AND/OR OBSTRUCTIONS TO VISIBILITY.

NYZ071-072-176-178-NJZ106-104-271900-
NEW YORK CITY METRO AREA

CITY           SKY/WX    TMP DP  RH WIND       PRES   REMARKS
Central Park   CLOUDY    69  56  62 SW5       29.89S
Wall St Helipt CLOUDY    72  55  56 VRB7      29.88F
Bronx Bot Gard   N/A     70  52  52 N3        29.89R
LaGuardia APRT CLOUDY    71  53  52 NW5       29.86S
Kennedy INTL   CLOUDY    70  58  65 SW12      29.88S
Breezy Point     N/A     66 N/A N/A S3          N/A
Newark/Liberty CLOUDY    73  55  53 W12       29.86S
Teterboro      CLOUDY    71  54  54 W6        29.86S
$$

NYZ177-179-078>081-271900-
LONG ISLAND NEW YORK

CITY           SKY/WX    TMP DP  RH WIND       PRES   REMARKS
Jones Beach      N/A     63 N/A N/A S7          N/A
Matinecock PT  NOT AVBL
Farmingdale    CLOUDY    66  55  67 SW10      29.88S
MacArthur/ISP  PTSUNNY   65  55  70 SW10      29.88R
Shirley        CLOUDY    64  55  72 S7        29.90R
Mt Sinai Harb    N/A     68 N/A N/A NE5         N/A
Westhampton    CLOUDY    62  52  69 S6        29.91S
East Hampton   PTSUNNY   65  49  56 NW3       29.89S
Montauk          N/A     65  47  52 N5        29.91S
$$

NYZ052-065-067-271900-
HUDSON VALLEY

CITY           SKY/WX    TMP DP  RH WIND       PRES   REMARKS
White Plains   PTSUNNY   71  52  50 W8        29.87R
Larchmont Harb   N/A     66 N/A N/A SE7         N/A
Croton O-T Hud   N/A     68 N/A N/A W5          N/A
Newburgh       NOT AVBL
Montgomery     CLOUDY    71  53  52 NW5       29.86S
Poughkeepsie   PTSUNNY   70  53  54 VRB5      29.86S
Albany         PTSUNNY   67  50  54 CALM      29.89F
$$

NJZ001-105-106-008-010-013-015-019>022-104-271900-
NEW JERSEY

CITY           SKY/WX    TMP DP  RH WIND       PRES   REMARKS
Newark/Liberty CLOUDY    73  55  53 W12       29.86S
Teterboro      CLOUDY    71  54  54 W6        29.86S
Caldwell       CLOUDY    73  52  47 NW7       29.88R
Somerville     CLOUDY    72  56  57 CALM      29.86S
Linden         CLOUDY    71  54  54 NW3       29.88R
Perth Amboy      N/A     70 N/A N/A W3          N/A
Sussex         CLOUDY    70  54  56 CALM      29.89S
Andover          N/A     70  54  56 CALM      29.89S
Trenton        LGT RAIN  70  57  63 SW8       29.88S
Millville      CLOUDY    73  56  54 W10       29.90S
Atlantic City  CLOUDY    73  52  47 NW9       29.89S
Wrightstown    CLOUDY    71  56  59 NW5       29.86S
Toms River     CLOUDY    70  58  65 SE10      29.89S
Belmar         CLOUDY    74  55  51 SW7       29.89F
$$

PAZ047>061-062-071-271900-
EASTERN PENNSYLVANIA

CITY           SKY/WX    TMP DP  RH WIND       PRES   REMARKS
Philadelphia   CLOUDY    72  50  45 W10       29.90R
Allentown      LGT RAIN  69  56  62 W8        29.89S
Scranton       CLOUDY    65  55  70 VRB6      29.91R
$$

CTZ002-004>006-009-010-012-RIZ004-006-007-MAZ004-011-015-271900-
SOUTHERN NEW ENGLAND
 IN CT

CITY           SKY/WX    TMP DP  RH WIND       PRES   REMARKS
Bradley INTL   PTSUNNY   67  48  50 VRB3      29.88F
Hartford       SUNNY     67  51  56 VRB3      29.88S
Danbury        MOSUNNY   69  53  56 NW9       29.88F
Wtrbury/Oxford PTSUNNY   66  48  52 NW9       29.89S
Bridgeport     CLOUDY    67  53  61 SE12      29.88S
Meriden        MOSUNNY   68  51  54 CALM      29.87F
New Haven      CLOUDY    63  52  67 SE12      29.89R
Chester          N/A     66  50  55 NE7       29.88F
Groton         PTSUNNY   66  50  56 CALM      29.88S
Wilimantic     PTSUNNY   69  51  52 VRB5      29.88S

 IN RI

CITY           SKY/WX    TMP DP  RH WIND       PRES   REMARKS
Providence     PTSUNNY   65  51  60 S3        29.87S
Block Island   CLOUDY    63  50  62 NW6       29.90R
Westerly       CLOUDY    67  50  54 NW5       29.88F
 IN MA

CITY           SKY/WX    TMP DP  RH WIND       PRES   REMARKS
Boston         MOSUNNY   58  51  78 E12       29.89R
Worcester      PTSUNNY   66  47  50 VRB7      29.87S
Westfield      MOSUNNY   67  49  52 SW6       29.87S
Provincetown   SUNNY     58  48  69 NE9       29.89S
Nantucket      CLOUDY    61  48  62 N8        29.88S
$$

ANZ330-335-338-340-345-350-353-355-271900-
COASTAL MARINE OBSERVATIONS


STATION/POSITION TIME  SKY/WX   TEMP    WIND        PRES    VSBY  WAVE
                                AIR SEA DIR/SP/G                  HT/PER
                 (UTC)          (F)     (DEG/KT/KT) (MB)    (MI)  (FT/S)
NY HARB ENTRANCE 1750            62 60  180/  6/  6 1011.9          2/ 7
20 S FIRE ISLAND 1750            60 59  210/  4/  6 1011.8          3/ 8
GREAT SOUTH BAY  NOT AVBL
23 SSW MONTAUK P 1750            58 56              1012.9          4/ 7
15 E BARNEGAT LI 1700               62                N/A           3/ 8
HUDSON CANYON    1750            59 59  270/  2/  2 1012.6          3/ 6
KINGS POINT      1748            68 59  320/  2/  3 1011.3
EXECUTION ROCKS  1745            68                   N/A
CENTRAL LI SOUND 1730            58     150/  6/  8   N/A           0
EASTERN LI SOUND NOT AVBL
ROBBINS REEF     1748            67     180/  7/  8 1012.1
$$


>>>>>>>>>>>>>>>>>>>>>>>>>>>> KEY <<<<<<<<<<<<<<<<<<<<<<<<<<<
>                                                          <
>     SKY/WX - Sky Condition/Present Weather               <
>     TMP    - Temperature in Fahrenheit                   <
>     DP     - Dew Point in Fahrenheit                     <
>     RH     - Relative Humidity in Percent                <
>     WIND   - Direction (from) and Speed in MPH           <
>     PRES   - Mean Sea Level Pressure (inches of Hg)      <
>     WCI    - Wind Chill Index                            <
>     VSB    - VISIBILITY IN MILES                         <
>     HX     - HEAT INDEX                                  <
>     TC     - TEMPERATURE IN CELSIUS                      <
>     VRB    - VARIABLE WIND DIRECTION                     <
>                                                          <
>>>>>>>>>>>>>>>>>>>>>>>>>>>> KEY <<<<<<<<<<<<<<<<<<<<<<<<<<<



USA.gov is the U.S. government's official web portal to all federal, state and local government web resources and services.